Tracking 19792 objects as of 16-Jul-2019
HD Live streaming from Space Station
objects crossing your sky now

COSMOS 1275 DEB

Track COSMOS 1275 DEB now!
10-day predictions


NORAD ID: 12657
Int'l Code: 1981-053M
Perigee: 444.2 km
Apogee: 459.5 km
Inclination: 82.7 °
Period: 93.5 minutes
Semi major axis: 6822 km
RCS: 0.0564 m2 (small)
Launch date: June 4, 1981
Source: Commonwealth of Independent States (former USSR) (CIS)
Launch site: PLESETSK MISSILE AND SPACE COMPLEX (PKMTR)

Note: This is SATELLITE DEBRIS
aabbcc
Your satellite tracking list
Your tracking list is empty




NASA's NSSDC Master Catalog

Two Line Element Set (TLE):
1 12657U 81053M   19196.65120989 +.00016781 +00000-0 +41209-3 0  9996
2 12657 082.7176 233.4707 0011215 116.3525 243.8874 15.40474833995472
Source of the keplerian elements: AFSPC